OAKBOAJL

Guest
Details From OAKB - Kabul Intl
To OAJL - JALALABAD
Flight Number -
Tags decoded
Created
Modified
Stats Distance 64 nm / 119 km
Max Altitude 0 ft / 0 m
Waypoints 2
Social Downloads 0
Likes 0
Share VATSIM

Download

Looking for another format? Having issues loading an existing format? Contact us
Advertisement - Login to hide

Notes

Requested: OAKB OAJL

Route

OAKB OAJL

ID Type Via Altitude Latitude Longitude Leg Dist Tot Dist Heading (true) Name
O OAKB APT - 0 ft / 0 m 34.56587˚ 69.21229˚ - 0 nm - Kabul Intl
O OAJL APT - 0 ft / 0 m 34.39984˚ 70.49863˚ 64 nm 64 nm 99° / 99° JALALABAD

Altitude Profile

Advertisement - Login to hide

OAKB

Details ICAO OAKB (KBL)
Name Kabul Intl
Region Afghanistan
Timezone Asia/Kabul (UTC+4.5)
Stats Elevation 5,877 ft / 1,791 m (AMSL)
Location 34.565875° 69.212289°
Runways 1
Magnetic Variation 3.190° E

METAR

OAKB 271150Z 02010G21KT 310V060 9999 FEW100 28/M04 Q1016 NOSIG RMK A3003 BLU BLU

Decode

TAF

TAF OAKB 270505Z 2706/2806 36010G20KT 9999 FEW100 TEMPO 2709/2715 02020G30KT BECMG 2716/2718 VRB02KT CAVOK

Decode

Departure Runways

ID Width Length Bearing (true) Bearing (mag) Surface Threshold Offset Overrun Length
11 164 ft / 50 m 11,483 ft / 3,500 m 107.39° 104.20° Asphalt 0 ft / 0 m 144 ft / 44 m
29 164 ft / 50 m 11,483 ft / 3,500 m 287.41° 284.22° Asphalt 0 ft / 0 m 190 ft / 58 m

OAJL

Details ICAO OAJL (JAA)
Name JALALABAD
Region Afghanistan
Timezone Asia/Kabul (UTC+4.5)
Stats Elevation 1,814 ft / 553 m (AMSL)
Location 34.399840° 70.498625°
Runways 1
Magnetic Variation 3.049° E

METAR

OAJL 271155Z 10005KT 9999 CLR 39/02 A2963 RMK AO2A SLP982 T03920016 10383 20260 57018

Decode

TAF

TAF OAJL 270800Z 2708/2814 33012KT 9999 SKC QNH2967INS TEMPO 2713/2717 34015G25KT 520003 BECMG 2719/2720 32009KT 9999 SKC QNH2974INS BECMG 2805/2806 33012G18KT 9999 SKC QNH2970INS TEMPO 2808/2814 34020G30KT TX39/2710Z TN24/2800Z

Decode

Destination Runways

ID Width Length Bearing (true) Bearing (mag) Surface Threshold Offset Overrun Length
13 148 ft / 45 m 7,263 ft / 2,214 m 131.57° 128.52° Asphalt 0 ft / 0 m 0 ft / 0 m
31 148 ft / 45 m 7,263 ft / 2,214 m 311.58° 308.53° Asphalt 0 ft / 0 m 0 ft / 0 m

Popular Alternatives